When you browse on this site, cookies collect data to enhance your experience and personalize the content and advertising you see.
Visit our Privacy Policy to learn more. By continuing to use the site, you agree to this use of cookies and data.
  • en France
  • Liste des pays
  • À 7 jours
  • Température de l'eau
  • Carte météo
  • Widgets météo
  • user-avatar
    Se connecter

    Météo par heure à Chernaya Rechka

    Ce jour, 18 Septembre, Mercredi

    Heure Température Précipitation Vent Pression Humidité
    00:00 +8°C° 0 mm 3 m/s 739 mmHg 76%
    01:00 +8°C° 0 mm 3 m/s 739 mmHg 76%
    02:00 +7°C° 0 mm 3 m/s 739 mmHg 77%
    03:00 +7°C° 0 mm 3 m/s 739 mmHg 78%
    04:00 +7°C° 0 mm 3 m/s 739 mmHg 79%
    05:00 +7°C° 0 mm 3 m/s 739 mmHg 79%
    06:00 +7°C° 0 mm 3 m/s 739 mmHg 80%
    07:00 +8°C° 0 mm 3 m/s 739 mmHg 76%
    08:00 +9°C° 0 mm 3 m/s 738 mmHg 71%
    09:00 +11°C° 0 mm 4 m/s 738 mmHg 66%
    10:00 +12°C° 0.1 mm 4 m/s 738 mmHg 63%
    11:00 +12°C° 0.1 mm 4 m/s 738 mmHg 60%
    12:00 +13°C° 0.1 mm 5 m/s 737 mmHg 57%
    13:00 +12°C° 0.4 mm 5 m/s 737 mmHg 63%
    14:00 +12°C° 0.4 mm 5 m/s 736 mmHg 70%
    15:00 +10°C° 0.4 mm 5 m/s 736 mmHg 76%
    16:00 +10°C° 0.3 mm 4 m/s 735 mmHg 80%
    17:00 +10°C° 0.3 mm 3 m/s 734 mmHg 84%
    18:00 +9°C° 0.3 mm 2 m/s 734 mmHg 88%
    19:00 +10°C° 0.2 mm 1 m/s 734 mmHg 89%
    20:00 +10°C° 0.2 mm 1 m/s 733 mmHg 91%
    21:00 +9°C° 0.2 mm 1 m/s 733 mmHg 92%
    22:00 +8°C° 0.2 mm 2 m/s 733 mmHg 92%
    23:00 +8°C° 0.2 mm 3 m/s 734 mmHg 92%

    Demain, 19 Septembre, Jeudi

    Heure Température Précipitation Vent Pression Humidité
    00:00 +7°C° 0.2 mm 4 m/s 734 mmHg 93%
    01:00 +7°C° 0.2 mm 5 m/s 735 mmHg 91%
    02:00 +7°C° 0.2 mm 5 m/s 736 mmHg 90%
    03:00 +7°C° 0.2 mm 5 m/s 736 mmHg 89%
    04:00 +6°C° 0 mm 5 m/s 737 mmHg 90%
    05:00 +5°C° 0 mm 5 m/s 738 mmHg 92%
    06:00 +5°C° 0 mm 5 m/s 739 mmHg 93%
    07:00 +6°C° 0 mm 5 m/s 740 mmHg 90%
    08:00 +7°C° 0 mm 5 m/s 740 mmHg 86%
    09:00 +8°C° 0 mm 5 m/s 741 mmHg 83%
    10:00 +8°C° 0.1 mm 5 m/s 742 mmHg 80%
    11:00 +9°C° 0.1 mm 6 m/s 743 mmHg 77%
    12:00 +10°C° 0.1 mm 6 m/s 743 mmHg 74%
    13:00 +9°C° 0.1 mm 6 m/s 744 mmHg 74%
    14:00 +9°C° 0.1 mm 5 m/s 744 mmHg 75%
    15:00 +8°C° 0.1 mm 5 m/s 745 mmHg 75%
    16:00 +8°C° 0 mm 4 m/s 745 mmHg 76%
    17:00 +8°C° 0 mm 4 m/s 745 mmHg 77%
    18:00 +8°C° 0 mm 4 m/s 746 mmHg 79%
    19:00 +8°C° 0 mm 3 m/s 746 mmHg 82%
    20:00 +7°C° 0 mm 3 m/s 746 mmHg 85%
    21:00 +7°C° 0 mm 3 m/s 746 mmHg 88%
    22:00 +5°C° 0 mm 3 m/s 746 mmHg 89%
    23:00 +5°C° 0 mm 3 m/s 747 mmHg 90%

    Après-demain, 20 Septembre, Vendredi

    Heure Température Précipitation Vent Pression Humidité
    00:00 +5°C° 0 mm 3 m/s 747 mmHg 90%
    01:00 +4°C° 0 mm 3 m/s 747 mmHg 91%
    02:00 +4°C° 0 mm 3 m/s 747 mmHg 91%
    03:00 +4°C° 0 mm 2 m/s 747 mmHg 91%
    04:00 +3°C° 0 mm 3 m/s 747 mmHg 90%
    05:00 +3°C° 0 mm 3 m/s 747 mmHg 90%
    06:00 +3°C° 0 mm 3 m/s 747 mmHg 90%
    07:00 +4°C° 0 mm 3 m/s 747 mmHg 87%
    08:00 +5°C° 0 mm 3 m/s 747 mmHg 84%
    09:00 +7°C° 0 mm 3 m/s 747 mmHg 81%
    10:00 +7°C° 0.1 mm 3 m/s 747 mmHg 78%
    11:00 +8°C° 0.1 mm 3 m/s 747 mmHg 76%
    12:00 +8°C° 0.1 mm 3 m/s 747 mmHg 74%
    13:00 +8°C° 0 mm 3 m/s 747 mmHg 69%
    14:00 +9°C° 0 mm 3 m/s 747 mmHg 64%
    15:00 +9°C° 0 mm 3 m/s 747 mmHg 60%
    16:00 +9°C° 0 mm 3 m/s 747 mmHg 62%
    17:00 +8°C° 0 mm 2 m/s 747 mmHg 64%
    18:00 +7°C° 0 mm 2 m/s 747 mmHg 67%
    19:00 +6°C° 0 mm 2 m/s 748 mmHg 69%
    20:00 +5°C° 0 mm 2 m/s 748 mmHg 70%
    21:00 +5°C° 0 mm 2 m/s 748 mmHg 72%
    22:00 +4°C° 0 mm 2 m/s 748 mmHg 72%
    23:00 +4°C° 0 mm 2 m/s 748 mmHg 72%

    21 Septembre, Samedi

    Heure Température Précipitation Vent Pression Humidité
    00:00 +4°C° 0 mm 2 m/s 748 mmHg 73%
    01:00 +3°C° 0 mm 2 m/s 748 mmHg 74%
    02:00 +3°C° 0 mm 2 m/s 748 mmHg 76%
    03:00 +3°C° 0 mm 2 m/s 749 mmHg 78%
    04:00 +3°C° 0 mm 2 m/s 749 mmHg 79%
    05:00 +2°C° 0 mm 2 m/s 749 mmHg 80%
    06:00 +2°C° 0 mm 2 m/s 749 mmHg 81%
    07:00 +3°C° 0 mm 2 m/s 749 mmHg 76%
    08:00 +5°C° 0 mm 2 m/s 749 mmHg 70%
    09:00 +5°C° 0 mm 3 m/s 750 mmHg 65%
    10:00 +7°C° 0 mm 3 m/s 750 mmHg 60%
    11:00 +9°C° 0 mm 3 m/s 750 mmHg 56%
    12:00 +10°C° 0 mm 3 m/s 750 mmHg 52%
    13:00 +10°C° 0 mm 3 m/s 750 mmHg 51%
    14:00 +10°C° 0 mm 3 m/s 749 mmHg 51%
    15:00 +10°C° 0 mm 3 m/s 749 mmHg 51%
    16:00 +9°C° 0 mm 3 m/s 749 mmHg 55%
    17:00 +8°C° 0 mm 3 m/s 749 mmHg 60%
    18:00 +7°C° 0 mm 2 m/s 749 mmHg 64%
    19:00 +6°C° 0 mm 2 m/s 749 mmHg 68%
    20:00 +5°C° 0 mm 2 m/s 749 mmHg 71%
    21:00 +4°C° 0 mm 2 m/s 750 mmHg 75%
    22:00 +4°C° 0 mm 2 m/s 749 mmHg 77%
    23:00 +4°C° 0 mm 2 m/s 749 mmHg 79%

    22 Septembre, Dimanche

    Heure Température Précipitation Vent Pression Humidité
    00:00 +3°C° 0 mm 2 m/s 749 mmHg 80%
    01:00 +3°C° 0 mm 2 m/s 748 mmHg 80%
    02:00 +2°C° 0 mm 3 m/s 748 mmHg 80%
    03:00 +2°C° 0 mm 3 m/s 747 mmHg 80%
    04:00 +3°C° 0 mm 4 m/s 746 mmHg 79%
    05:00 +2°C° 0 mm 5 m/s 745 mmHg 78%
    06:00 +3°C° 0 mm 6 m/s 744 mmHg 77%
    07:00 +3°C° 0.8 mm 7 m/s 743 mmHg 82%
    08:00 +2°C° 0.8 mm 8 m/s 741 mmHg 87%
    09:00 +2°C° 0.8 mm 9 m/s 740 mmHg 91%
    10:00 +5°C° 1.1 mm 8 m/s 739 mmHg 90%
    11:00 +7°C° 1.1 mm 8 m/s 738 mmHg 89%
    12:00 +9°C° 1.1 mm 8 m/s 737 mmHg 88%
    13:00 +8°C° 0.8 mm 9 m/s 736 mmHg 79%
    14:00 +9°C° 0.8 mm 10 m/s 736 mmHg 70%
    15:00 +9°C° 0.8 mm 11 m/s 736 mmHg 60%
    16:00 +7°C° 0 mm 10 m/s 737 mmHg 61%
    17:00 +6°C° 0 mm 9 m/s 738 mmHg 61%
    18:00 +5°C° 0 mm 8 m/s 738 mmHg 62%
    19:00 +3°C° 0 mm 9 m/s 739 mmHg 65%
    20:00 +3°C° 0 mm 9 m/s 739 mmHg 68%
    21:00 +2°C° 0 mm 10 m/s 739 mmHg 71%
    22:00 +2°C° 0 mm 11 m/s 740 mmHg 72%
    23:00 +1°C° 0 mm 11 m/s 740 mmHg 73%

    23 Septembre, Lundi

    Heure Température Précipitation Vent Pression Humidité
    00:00 +1°C° 0 mm 11 m/s 741 mmHg 73%
    01:00 +1°C° 0 mm 10 m/s 742 mmHg 74%
    02:00 +1°C° 0 mm 10 m/s 743 mmHg 75%
    03:00 +1°C° 0 mm 9 m/s 744 mmHg 76%
    04:00 +1°C° 0 mm 9 m/s 745 mmHg 76%
    05:00 +1°C° 0 mm 8 m/s 746 mmHg 76%
    06:00 +2°C° 0 mm 7 m/s 747 mmHg 75%
    07:00 +2°C° 0 mm 7 m/s 747 mmHg 74%
    08:00 +3°C° 0 mm 7 m/s 748 mmHg 73%
    09:00 +3°C° 0 mm 7 m/s 749 mmHg 71%
    10:00 +4°C° 0 mm 6 m/s 750 mmHg 69%
    11:00 +4°C° 0 mm 6 m/s 750 mmHg 66%
    12:00 +6°C° 0 mm 5 m/s 751 mmHg 64%
    13:00 +7°C° 0 mm 5 m/s 751 mmHg 61%
    14:00 +7°C° 0 mm 5 m/s 751 mmHg 59%
    15:00 +8°C° 0 mm 4 m/s 751 mmHg 56%
    16:00 +7°C° 0 mm 4 m/s 751 mmHg 61%
    17:00 +7°C° 0 mm 3 m/s 751 mmHg 65%
    18:00 +6°C° 0 mm 2 m/s 751 mmHg 70%
    19:00 +5°C° 0 mm 2 m/s 751 mmHg 73%
    20:00 +6°C° 0 mm 1 m/s 752 mmHg 77%
    21:00 +5°C° 0 mm 1 m/s 752 mmHg 80%
    22:00 +4°C° 0 mm 1 m/s 752 mmHg 81%
    23:00 +4°C° 0 mm 1 m/s 752 mmHg 82%
    Voir plus